Location: Bennemühlen
(52.5740°N, 9.7135°E)
Time: 17:35:49
(UTC+00:00)

Helios 1A - Pass Details

Date: 19 May 2025
Orbit: 544 x 570 km, 98.3° (Epoch: 03 June)

Event Time Altitude Azimuth Distance (km) Brightness Sun altitude
Rises 20:40:51 0° 10° (N) 2,791 7.1 -9.9°
Reaches altitude 10° 20:43:04 10° 4° (N) 1,886 6.3 -10.1°
Maximum altitude 20:46:57 44° 293° (WNW) 798 4.1 -10.4°
Drops below altitude 10° 20:50:47 10° 221° (SW) 1,862 5.4 -10.8°
Sets 20:52:58 0° 215° (SW) 2,750 6.2 -10.9°
